When you browse on this site, cookies collect data to enhance your experience and personalize the content and advertising you see.
Visit our Privacy Policy to learn more. By continuing to use the site, you agree to this use of cookies and data.
  • In Hungary
  • List of Countries
  • For 7 days
  • Water Temperature
  • Satellite Maps
  • Weather Map
  • News
  • Weather Widgets
  • user-avatar
    Login

    Hourly Weather Kandahar

    Today, 14 December, Friday

    Time Temperature Precipitation Wind Pressure Humidity
    00:00 +8°C° 0 mm 0 mps 678 mmHg 42%
    01:00 +8°C° 0 mm 0 mps 678 mmHg 43%
    02:00 +7°C° 0 mm 0 mps 678 mmHg 43%
    03:00 +7°C° 0 mm 0 mps 677 mmHg 44%
    04:00 +6°C° 0 mm 0 mps 677 mmHg 44%
    05:00 +6°C° 0 mm 0 mps 677 mmHg 44%
    06:00 +6°C° 0 mm 0 mps 678 mmHg 44%
    07:00 +6°C° 0 mm 0 mps 678 mmHg 44%
    08:00 +8°C° 0 mm 0 mps 679 mmHg 39%
    09:00 +11°C° 0 mm 0 mps 679 mmHg 33%
    10:00 +14°C° 0 mm 1 mps 680 mmHg 28%
    11:00 +13°C° 0 mm 0 mps 680 mmHg 26%
    12:00 +14°C° 0 mm 0 mps 679 mmHg 24%
    13:00 +15°C° 0 mm 0 mps 679 mmHg 23%
    14:00 +14°C° 0 mm 0 mps 679 mmHg 24%
    15:00 +14°C° 0 mm 0 mps 679 mmHg 24%
    16:00 +15°C° 0 mm 1 mps 678 mmHg 25%
    17:00 +14°C° 0 mm 1 mps 678 mmHg 28%
    18:00 +13°C° 0 mm 1 mps 678 mmHg 31%
    19:00 +11°C° 0 mm 1 mps 678 mmHg 33%
    20:00 +11°C° 0 mm 1 mps 678 mmHg 34%
    21:00 +10°C° 0 mm 1 mps 678 mmHg 35%
    22:00 +10°C° 0 mm 1 mps 678 mmHg 36%
    23:00 +10°C° 0 mm 1 mps 678 mmHg 36%

    Tomorrow, 15 December, Saturday

    Time Temperature Precipitation Wind Pressure Humidity
    00:00 +9°C° 0 mm 1 mps 678 mmHg 37%
    01:00 +9°C° 0 mm 1 mps 678 mmHg 37%
    02:00 +9°C° 0 mm 1 mps 678 mmHg 37%
    03:00 +8°C° 0 mm 1 mps 677 mmHg 38%
    04:00 +8°C° 0 mm 1 mps 677 mmHg 38%
    05:00 +8°C° 0 mm 1 mps 678 mmHg 38%
    06:00 +8°C° 0 mm 1 mps 678 mmHg 37%
    07:00 +8°C° 0 mm 1 mps 678 mmHg 37%
    08:00 +10°C° 0 mm 1 mps 679 mmHg 32%
    09:00 +12°C° 0 mm 1 mps 680 mmHg 27%
    10:00 +14°C° 0 mm 1 mps 680 mmHg 22%
    11:00 +15°C° 0 mm 1 mps 680 mmHg 21%
    12:00 +16°C° 0 mm 1 mps 680 mmHg 19%
    13:00 +15°C° 0 mm 0 mps 679 mmHg 17%
    14:00 +15°C° 0 mm 0 mps 679 mmHg 18%
    15:00 +15°C° 0 mm 0 mps 679 mmHg 20%
    16:00 +14°C° 0 mm 0 mps 679 mmHg 21%
    17:00 +13°C° 0 mm 0 mps 679 mmHg 23%
    18:00 +12°C° 0 mm 0 mps 679 mmHg 25%
    19:00 +10°C° 0 mm 0 mps 679 mmHg 27%
    20:00 +10°C° 0 mm 0 mps 679 mmHg 28%
    21:00 +9°C° 0 mm 0 mps 679 mmHg 29%
    22:00 +9°C° 0 mm 0 mps 679 mmHg 29%
    23:00 +9°C° 0 mm 0 mps 679 mmHg 29%

    Day after tomorrow, 16 December, Sunday

    Time Temperature Precipitation Wind Pressure Humidity
    00:00 +9°C° 0 mm 1 mps 678 mmHg 29%
    01:00 +9°C° 0 mm 1 mps 678 mmHg 29%
    02:00 +9°C° 0 mm 1 mps 678 mmHg 29%
    03:00 +9°C° 0 mm 1 mps 678 mmHg 29%
    04:00 +8°C° 0 mm 1 mps 678 mmHg 30%
    05:00 +8°C° 0 mm 1 mps 678 mmHg 29%
    06:00 +8°C° 0 mm 1 mps 678 mmHg 29%
    07:00 +7°C° 0 mm 2 mps 679 mmHg 29%
    08:00 +10°C° 0 mm 1 mps 679 mmHg 25%
    09:00 +13°C° 0 mm 1 mps 680 mmHg 21%
    10:00 +15°C° 0 mm 1 mps 681 mmHg 17%
    11:00 +16°C° 0 mm 1 mps 681 mmHg 16%
    12:00 +16°C° 0 mm 1 mps 680 mmHg 15%
    13:00 +16°C° 0 mm 0 mps 680 mmHg 13%
    14:00 +18°C° 0 mm 1 mps 679 mmHg 15%
    15:00 +16°C° 0 mm 1 mps 679 mmHg 16%
    16:00 +16°C° 0 mm 1 mps 679 mmHg 17%
    17:00 +15°C° 0 mm 1 mps 679 mmHg 19%
    18:00 +13°C° 0 mm 1 mps 679 mmHg 21%
    19:00 +12°C° 0 mm 1 mps 679 mmHg 22%
    20:00 +11°C° 0 mm 1 mps 679 mmHg 23%
    21:00 +11°C° 0 mm 1 mps 679 mmHg 24%
    22:00 +9°C° 0 mm 0 mps 679 mmHg 25%
    23:00 +9°C° 0 mm 0 mps 679 mmHg 25%

    17 December, Monday

    Time Temperature Precipitation Wind Pressure Humidity
    00:00 +8°C° 0 mm 0 mps 678 mmHg 26%
    01:00 +8°C° 0 mm 0 mps 678 mmHg 26%
    02:00 +7°C° 0 mm 0 mps 678 mmHg 26%
    03:00 +7°C° 0 mm 0 mps 678 mmHg 27%
    04:00 +7°C° 0 mm 0 mps 677 mmHg 27%
    05:00 +6°C° 0 mm 0 mps 678 mmHg 27%
    06:00 +6°C° 0 mm 0 mps 678 mmHg 27%
    07:00 +6°C° 0 mm 0 mps 678 mmHg 27%
    08:00 +9°C° 0 mm 0 mps 679 mmHg 23%
    09:00 +11°C° 0 mm 0 mps 680 mmHg 19%
    10:00 +14°C° 0 mm 0 mps 681 mmHg 16%
    11:00 +14°C° 0 mm 0 mps 680 mmHg 15%
    12:00 +16°C° 0 mm 1 mps 680 mmHg 14%
    13:00 +18°C° 0 mm 1 mps 679 mmHg 13%
    14:00 +16°C° 0 mm 1 mps 679 mmHg 14%
    15:00 +16°C° 0 mm 1 mps 679 mmHg 15%
    16:00 +15°C° 0 mm 1 mps 678 mmHg 16%
    17:00 +14°C° 0 mm 1 mps 679 mmHg 18%
    18:00 +13°C° 0 mm 1 mps 679 mmHg 20%
    19:00 +11°C° 0 mm 1 mps 679 mmHg 21%
    20:00 +10°C° 0 mm 0 mps 679 mmHg 22%
    21:00 +9°C° 0 mm 0 mps 678 mmHg 22%
    22:00 +9°C° 0 mm 0 mps 678 mmHg 23%
    23:00 +8°C° 0 mm 0 mps 678 mmHg 23%

    18 December, Tuesday

    Time Temperature Precipitation Wind Pressure Humidity
    00:00 +8°C° 0 mm 0 mps 678 mmHg 23%
    01:00 +7°C° 0 mm 0 mps 677 mmHg 24%
    02:00 +7°C° 0 mm 0 mps 677 mmHg 24%
    03:00 +7°C° 0 mm 0 mps 677 mmHg 24%
    04:00 +6°C° 0 mm 0 mps 677 mmHg 24%
    05:00 +6°C° 0 mm 0 mps 677 mmHg 24%
    06:00 +6°C° 0 mm 0 mps 677 mmHg 24%
    07:00 +7°C° 0 mm 1 mps 677 mmHg 24%
    08:00 +10°C° 0 mm 1 mps 678 mmHg 20%
    09:00 +13°C° 0 mm 1 mps 679 mmHg 17%
    10:00 +15°C° 0 mm 1 mps 680 mmHg 13%
    11:00 +16°C° 0 mm 1 mps 679 mmHg 12%
    12:00 +18°C° 0 mm 1 mps 679 mmHg 11%
    13:00 +19°C° 0 mm 1 mps 678 mmHg 10%
    14:00 +18°C° 0 mm 1 mps 677 mmHg 11%
    15:00 +16°C° 0 mm 1 mps 677 mmHg 13%
    16:00 +16°C° 0 mm 1 mps 676 mmHg 14%
    17:00 +14°C° 0 mm 1 mps 676 mmHg 15%
    18:00 +13°C° 0 mm 1 mps 676 mmHg 16%
    19:00 +12°C° 0 mm 1 mps 676 mmHg 17%
    20:00 +12°C° 0 mm 1 mps 676 mmHg 17%
    21:00 +11°C° 0 mm 1 mps 676 mmHg 17%
    22:00 +11°C° 0 mm 1 mps 675 mmHg 17%
    23:00 +10°C° 0 mm 2 mps 675 mmHg 16%

    19 December, Wednesday

    Time Temperature Precipitation Wind Pressure Humidity
    00:00 +9°C° 0 mm 2 mps 675 mmHg 16%
    01:00 +9°C° 0 mm 2 mps 674 mmHg 16%
    02:00 +9°C° 0 mm 2 mps 674 mmHg 15%
    03:00 +8°C° 0 mm 2 mps 674 mmHg 15%
    04:00 +9°C° 0 mm 1 mps 674 mmHg 14%
    05:00 +9°C° 0 mm 1 mps 674 mmHg 14%
    06:00 +9°C° 0 mm 1 mps 674 mmHg 13%
    07:00 +9°C° 0 mm 1 mps 674 mmHg 13%
    08:00 +10°C° 0 mm 2 mps 675 mmHg 11%
    09:00 +14°C° 0 mm 2 mps 676 mmHg 9%
    10:00 +17°C° 0 mm 2 mps 677 mmHg 7%
    11:00 +17°C° 0 mm 2 mps 677 mmHg 7%
    12:00 +18°C° 0 mm 2 mps 676 mmHg 6%
    13:00 +19°C° 0 mm 2 mps 676 mmHg 6%
    14:00 +19°C° 0 mm 1 mps 676 mmHg 7%
    15:00 +18°C° 0 mm 1 mps 676 mmHg 8%
    16:00 +18°C° 0 mm 1 mps 676 mmHg 9%
    17:00 +15°C° 0 mm 1 mps 676 mmHg 10%
    18:00 +14°C° 0 mm 1 mps 676 mmHg 12%
    19:00 +13°C° 0 mm 1 mps 676 mmHg 13%
    20:00 +12°C° 0 mm 1 mps 676 mmHg 13%
    21:00 +12°C° 0 mm 1 mps 677 mmHg 13%
    22:00 +11°C° 0 mm 1 mps 677 mmHg 13%
    23:00 +11°C° 0 mm 1 mps 676 mmHg 14%
    Show more